Regional Weather Roundup
Issued by NWS

Home | Current Version | Previous Version | Text Only | Print | Product List | Glossary Off
Versions: 1 2 3 4 5 6 7 8 9 10 11 12 13 14 15 16 17 18 19 20 21 22 23 24 25 26 27 28 29 30 31 32 33 34 35 36 37 38 39 40 41 42 43 44 45 46 47 48 49 50

000
ASUS43 KDMX 292207
RWRIA

WEATHER ROUNDUP FOR IOWA
NATIONAL WEATHER SERVICE DES MOINES IA
400 PM CST THU JAN 29 2015

NOTE: "FAIR" INDICATES FEW OR NO CLOUDS BELOW 12,000 FEET WITH NO
SIGNIFICANT WEATHER AND/OR OBSTRUCTIONS TO VISIBILITY.

* - THESE STATIONS ARE NOT NWS STATIONS...THUS NOT UNDER NWS
QUALITY CONTROL.  THEY ALSO DO NOT REPORT WEATHER SUCH
AS PRECIPITATION OR FOG.

IAZ001>003-012>014-020>022-031>034-043>046-292300-
   NORTHWEST IOWA

CITY           SKY/WX    TMP DP  RH WIND       PRES   REMARKS
CARROLL *      CLOUDY    32  25  74 NW22G29   30.39R WCI  19
CHEROKEE *     CLOUDY    32  25  74 N17G23    30.42R WCI  21
DENISON *      CLOUDY    34  25  69 N20G31    30.40R WCI  22
LE MARS *      CLOUDY    34  25  69 NW20G26   30.44R WCI  22
ORANGE CITY *  CLOUDY    32  23  69 N14       30.42R WCI  22
SHELDON *      CLOUDY    30  25  80 NW20G28   30.41R WCI  18
SIOUX CITY     CLOUDY    35  25  66 NW21G30   30.44R WCI  24
SPENCER        CLOUDY    30  21  69 N22       30.40R WCI  17
STORM LAKE *   CLOUDY    30  25  80 NW20G28   30.40R WCI  18
$$

IAZ055>058-069>071-079>083-090>094-292300-
   SOUTHWEST IOWA

CITY           SKY/WX    TMP DP  RH WIND       PRES   REMARKS
ATLANTIC *     CLOUDY    36  25  64 NW23G29   30.41R WCI  24
AUDUBON *      CLOUDY    34  25  69 NW14G25   30.41R WCI  24
CLARINDA *     CLOUDY    37  25  60 N18G25    30.43S WCI  27
COUNCIL BLFS * CLOUDY    36  25  64 N21G28    30.41R WCI  24
CRESTON *      CLOUDY    34  25  69 N20G31    30.38R WCI  22
HARLAN  *      CLOUDY    36  27  69 NW21G26   30.45R WCI  24
LAMONI         CLOUDY    36  25  64 NW18G28   30.36R WCI  26
RED OAK *      CLOUDY    37  23  56 N17G23    30.42R WCI  28
SHENANDOAH *   CLOUDY    39  25  56 NW15G23   30.44S WCI  31
$$

IAZ047>049-059>061-072>074-084-292300-
   CENTRAL IOWA

CITY           SKY/WX    TMP DP  RH WIND       PRES   REMARKS
AMES           CLOUDY    32  21  64 N22G33    30.35R WCI  19
ANKENY *       CLOUDY    34  21  60 NW22G32   30.35R WCI  22
CHARITON *     LGT RAIN  36  25  64 NW23G33   30.34R WCI  24
DES MOINES     CLOUDY    35  22  58 NW18G32   30.36R WCI  24
GRINNELL*      CLOUDY    34  27  75 NW25G32   30.30R WCI  21
KNOXVILLE *    CLOUDY    36  23  60 N18G28    30.32R WCI  25
MARSHALLTOWN   CLOUDY    33  24  69 NW26G37   30.30R WCI  20
PELLA *        PTSUNNY   36  27  69 NW22G28   30.34R WCI  24
PERRY *          N/A     34  25  69 NW20G30   30.38R WCI  22
$$

IAZ004>006-015-016-023>025-035-036-292300-
   NORTH CENTRAL IOWA

CITY           SKY/WX    TMP DP  RH WIND       PRES   REMARKS
ALGONA *       CLOUDY    28  21  74 N25G35    30.37R WCI  14
CLARION *      CLOUDY    28  25  86 NW26G35   30.34R WCI  13
ESTHERVILLE    CLOUDY    27  20  75 N26G33    30.38R WCI  12
FORT DODGE *   CLOUDY    30  19  64 NW14G24   30.38R WCI  20
MASON CITY     CLOUDY    28  20  71 NW28G37   30.33R WCI  13
FOREST CITY *  CLOUDY    28  19  69 NW24G35   30.33R WCI  14
IOWA FALLS *   CLOUDY    32  23  69 NW30G37   30.33R WCI  18
$$

IAZ007>011-017>019-026>030-037>042-050>054-066-292300-
   NORTHEAST IOWA

CITY           SKY/WX    TMP DP  RH WIND       PRES   REMARKS
CEDAR RAPIDS   CLOUDY    33  26  75 NW25G31   30.24R WCI  20
CHARLES CITY * CLOUDY    30  25  80 NW30G36   30.28R WCI  15
CLINTON *      CLOUDY    36  27  69 NW18G26   30.19R WCI  25
DECORAH *      CLOUDY    32  23  69 NW18G30   30.21R WCI  20
DUBUQUE        CLOUDY    33  25  72 NW23      30.16R WCI  21
MONTICELLO *   CLOUDY    34  27  75 NW22G32   30.20R WCI  22
OELWEIN *      CLOUDY    32  25  74 NW20G28   30.24R WCI  20
WATERLOO       CLOUDY    33  23  66 NW23G32   30.26R WCI  21
$$

IAZ064-065-067-068-078-292300-
   EAST CENTRAL IOWA

CITY           SKY/WX    TMP DP  RH WIND       PRES   REMARKS
DAVENPORT      CLOUDY    34  26  72 NW21G31   30.19R WCI  22
IOWA CITY      CLOUDY    34  25  69 NW25G36   30.26R WCI  21
MT. PLEASANT * CLOUDY    34  27  75 NW15G24   30.27R WCI  24
MUSCATINE *    CLOUDY    36  27  69 NW21G30   30.25R WCI  24
QUAD CITIES    CLOUDY    35  28  75 NW16      30.19R WCI  25
$$

IAZ062-063-075>077-085>089-095>099-292300-
   SOUTHEAST IOWA

CITY           SKY/WX    TMP DP  RH WIND       PRES   REMARKS
BURLINGTON     CLOUDY    34  27  75 NW18G25   30.25R WCI  23
FAIRFIELD *    CLOUDY    34  27  75 NW21G30   30.29R WCI  22
FORT MADISON * CLOUDY    34  28  80 NW16G25   30.27R WCI  23
KEOKUK *       CLOUDY    34  28  80 NW16G25   30.27R WCI  23
OSKALOOSA *    CLOUDY    34  27  75 NW22G31   30.31R WCI  22
CENTERVILLE *  CLOUDY    36  27  69 NW21      30.34R WCI  24
OTTUMWA        CLOUDY    35  25  66 NW28G33   30.30R WCI  22
WASHINGTON *   CLOUDY    34  30  86 NW22G30   30.27R WCI  22
$$

ABBREVIATIONS USED IN REMARKS
   TC - TEMPERATURES IN CELSIUS
  WCI - WIND CHILL INDEX
   HX - HEAT INDEX
  VSB - VISIBILITY
$$



USA.gov is the U.S. government's official web portal to all federal, state and local government web resources and services.